When you browse on this site, cookies collect data to enhance your experience and personalize the content and advertising you see.
Visit our Privacy Policy to learn more. By continuing to use the site, you agree to this use of cookies and data.

Hourly Weather Zaprose

Today, 8 August, Saturday

Time Temperature Precipitation Wind Pressure Humidity
00:00 +19°C° 0 mm 2 mps 756 mmHg 92%
01:00 +19°C° 0 mm 2 mps 756 mmHg 94%
02:00 +19°C° 0 mm 2 mps 757 mmHg 95%
03:00 +18°C° 0 mm 2 mps 757 mmHg 95%
04:00 +18°C° 0 mm 2 mps 756 mmHg 96%
05:00 +19°C° 0 mm 1 mps 756 mmHg 96%
06:00 +20°C° 0 mm 1 mps 756 mmHg 90%
07:00 +21°C° 0 mm 2 mps 756 mmHg 84%
08:00 +24°C° 0 mm 1 mps 757 mmHg 77%
09:00 +25°C° 0 mm 2 mps 757 mmHg 71%
10:00 +26°C° 0 mm 2 mps 756 mmHg 66%
11:00 +27°C° 0 mm 2 mps 756 mmHg 60%
12:00 +28°C° 0 mm 2 mps 756 mmHg 59%
13:00 +28°C° 0 mm 2 mps 755 mmHg 59%
14:00 +28°C° 0 mm 2 mps 755 mmHg 58%
15:00 +28°C° 0 mm 2 mps 755 mmHg 60%
16:00 +28°C° 0 mm 2 mps 754 mmHg 61%
17:00 +28°C° 0 mm 2 mps 754 mmHg 63%
18:00 +26°C° 0.1 mm 2 mps 754 mmHg 70%
19:00 +24°C° 0.1 mm 2 mps 754 mmHg 78%
20:00 +21°C° 0.1 mm 2 mps 754 mmHg 85%
21:00 +22°C° 0 mm 1 mps 754 mmHg 87%
22:00 +21°C° 0 mm 1 mps 754 mmHg 89%
23:00 +20°C° 0 mm 1 mps 754 mmHg 92%

Tomorrow, 9 August, Sunday

Time Temperature Precipitation Wind Pressure Humidity
00:00 +20°C° 0 mm 1 mps 754 mmHg 92%
01:00 +19°C° 0 mm 1 mps 754 mmHg 93%
02:00 +19°C° 0 mm 1 mps 754 mmHg 93%
03:00 +19°C° 0 mm 1 mps 753 mmHg 94%
04:00 +19°C° 0 mm 1 mps 753 mmHg 94%
05:00 +18°C° 0 mm 1 mps 753 mmHg 95%
06:00 +20°C° 0 mm 1 mps 753 mmHg 90%
07:00 +21°C° 0 mm 1 mps 753 mmHg 85%
08:00 +23°C° 0 mm 1 mps 753 mmHg 81%
09:00 +24°C° 0.1 mm 1 mps 753 mmHg 75%
10:00 +25°C° 0.1 mm 1 mps 753 mmHg 69%
11:00 +26°C° 0.1 mm 2 mps 753 mmHg 63%
12:00 +27°C° 0.1 mm 2 mps 753 mmHg 60%
13:00 +28°C° 0.1 mm 2 mps 752 mmHg 56%
14:00 +28°C° 0.1 mm 2 mps 752 mmHg 53%
15:00 +28°C° 0 mm 2 mps 752 mmHg 55%
16:00 +28°C° 0 mm 2 mps 752 mmHg 57%
17:00 +27°C° 0 mm 2 mps 752 mmHg 59%
18:00 +26°C° 0 mm 2 mps 751 mmHg 66%
19:00 +24°C° 0 mm 1 mps 751 mmHg 72%
20:00 +22°C° 0 mm 1 mps 751 mmHg 79%
21:00 +21°C° 0 mm 1 mps 751 mmHg 81%
22:00 +20°C° 0 mm 1 mps 751 mmHg 83%
23:00 +20°C° 0 mm 1 mps 752 mmHg 86%

Day after tomorrow, 10 August, Monday

Time Temperature Precipitation Wind Pressure Humidity
00:00 +19°C° 0 mm 1 mps 751 mmHg 87%
01:00 +19°C° 0 mm 1 mps 751 mmHg 89%
02:00 +18°C° 0 mm 1 mps 751 mmHg 91%
03:00 +18°C° 0.1 mm 1 mps 751 mmHg 92%
04:00 +18°C° 0.1 mm 1 mps 751 mmHg 92%
05:00 +18°C° 0.1 mm 1 mps 751 mmHg 93%
06:00 +20°C° 0.1 mm 1 mps 751 mmHg 88%
07:00 +21°C° 0.1 mm 1 mps 751 mmHg 83%
08:00 +23°C° 0.1 mm 1 mps 751 mmHg 78%
09:00 +24°C° 0.2 mm 1 mps 751 mmHg 73%
10:00 +26°C° 0.2 mm 1 mps 751 mmHg 67%
11:00 +27°C° 0.2 mm 1 mps 751 mmHg 61%
12:00 +28°C° 0.1 mm 2 mps 751 mmHg 58%
13:00 +28°C° 0.1 mm 2 mps 751 mmHg 55%
14:00 +29°C° 0.1 mm 2 mps 750 mmHg 52%
15:00 +28°C° 0 mm 2 mps 750 mmHg 54%
16:00 +28°C° 0 mm 2 mps 750 mmHg 56%
17:00 +28°C° 0 mm 2 mps 750 mmHg 59%
18:00 +26°C° 0.1 mm 2 mps 750 mmHg 66%
19:00 +24°C° 0.1 mm 2 mps 750 mmHg 73%
20:00 +22°C° 0.1 mm 1 mps 750 mmHg 80%
21:00 +21°C° 0 mm 1 mps 750 mmHg 81%
22:00 +21°C° 0 mm 1 mps 750 mmHg 83%
23:00 +20°C° 0 mm 1 mps 750 mmHg 85%

11 August, Tuesday

Time Temperature Precipitation Wind Pressure Humidity
00:00 +20°C° 0 mm 1 mps 750 mmHg 86%
01:00 +19°C° 0 mm 1 mps 750 mmHg 87%
02:00 +19°C° 0 mm 1 mps 750 mmHg 88%
03:00 +19°C° 0 mm 1 mps 750 mmHg 89%
04:00 +18°C° 0 mm 1 mps 750 mmHg 90%
05:00 +18°C° 0 mm 1 mps 750 mmHg 91%
06:00 +19°C° 0.2 mm 1 mps 750 mmHg 89%
07:00 +19°C° 0.2 mm 2 mps 750 mmHg 86%
08:00 +21°C° 0.2 mm 2 mps 750 mmHg 84%
09:00 +23°C° 1.1 mm 2 mps 750 mmHg 81%
10:00 +24°C° 1.1 mm 3 mps 750 mmHg 78%
11:00 +25°C° 1.1 mm 3 mps 750 mmHg 75%
12:00 +25°C° 0.9 mm 3 mps 750 mmHg 73%
13:00 +26°C° 0.9 mm 3 mps 750 mmHg 70%
14:00 +26°C° 0.9 mm 3 mps 750 mmHg 68%
15:00 +25°C° 0.5 mm 3 mps 750 mmHg 72%
16:00 +25°C° 0.5 mm 3 mps 750 mmHg 75%
17:00 +24°C° 0.5 mm 3 mps 750 mmHg 78%
18:00 +21°C° 0.1 mm 3 mps 750 mmHg 80%
19:00 +20°C° 0.1 mm 3 mps 750 mmHg 82%
20:00 +18°C° 0.1 mm 3 mps 751 mmHg 84%
21:00 +17°C° 0 mm 3 mps 751 mmHg 85%
22:00 +16°C° 0 mm 3 mps 751 mmHg 87%
23:00 +14°C° 0 mm 3 mps 751 mmHg 88%

12 August, Wednesday

Time Temperature Precipitation Wind Pressure Humidity
00:00 +13°C° 0 mm 3 mps 752 mmHg 89%
01:00 +13°C° 0 mm 3 mps 752 mmHg 91%
02:00 +13°C° 0 mm 2 mps 752 mmHg 93%
03:00 +12°C° 0 mm 2 mps 752 mmHg 93%
04:00 +12°C° 0 mm 2 mps 752 mmHg 94%
05:00 +12°C° 0 mm 2 mps 752 mmHg 95%
06:00 +12°C° 0 mm 3 mps 753 mmHg 89%
07:00 +13°C° 0 mm 3 mps 753 mmHg 83%
08:00 +16°C° 0 mm 3 mps 753 mmHg 76%
09:00 +17°C° 0 mm 3 mps 753 mmHg 70%
10:00 +18°C° 0 mm 4 mps 753 mmHg 64%
11:00 +20°C° 0 mm 4 mps 753 mmHg 58%
12:00 +20°C° 0 mm 4 mps 753 mmHg 57%
13:00 +20°C° 0 mm 4 mps 753 mmHg 57%
14:00 +20°C° 0 mm 4 mps 753 mmHg 56%
15:00 +20°C° 0 mm 4 mps 753 mmHg 58%
16:00 +20°C° 0 mm 3 mps 753 mmHg 60%
17:00 +19°C° 0 mm 3 mps 753 mmHg 62%
18:00 +18°C° 0 mm 3 mps 753 mmHg 68%
19:00 +16°C° 0 mm 2 mps 753 mmHg 74%
20:00 +15°C° 0 mm 2 mps 753 mmHg 79%
21:00 +15°C° 0 mm 2 mps 754 mmHg 80%
22:00 +14°C° 0 mm 2 mps 754 mmHg 81%
23:00 +14°C° 0 mm 2 mps 754 mmHg 81%

13 August, Thursday

Time Temperature Precipitation Wind Pressure Humidity
00:00 +14°C° 0 mm 2 mps 754 mmHg 84%
01:00 +13°C° 0 mm 2 mps 754 mmHg 87%
02:00 +12°C° 0 mm 2 mps 754 mmHg 90%
03:00 +12°C° 0 mm 2 mps 754 mmHg 91%
04:00 +10°C° 0 mm 2 mps 754 mmHg 91%
05:00 +10°C° 0 mm 2 mps 754 mmHg 92%
06:00 +12°C° 0 mm 2 mps 754 mmHg 84%
07:00 +14°C° 0 mm 1 mps 754 mmHg 76%
08:00 +16°C° 0 mm 1 mps 754 mmHg 69%
09:00 +18°C° 0 mm 1 mps 754 mmHg 63%
10:00 +20°C° 0 mm 1 mps 754 mmHg 58%
11:00 +21°C° 0 mm 1 mps 754 mmHg 53%
12:00 +21°C° 0 mm 1 mps 754 mmHg 52%
13:00 +22°C° 0 mm 1 mps 754 mmHg 51%
14:00 +22°C° 0 mm 1 mps 753 mmHg 50%
15:00 +22°C° 0 mm 1 mps 753 mmHg 53%
16:00 +21°C° 0 mm 1 mps 753 mmHg 55%
17:00 +21°C° 0 mm 1 mps 753 mmHg 58%
18:00 +20°C° 0 mm 1 mps 753 mmHg 63%
19:00 +18°C° 0 mm 1 mps 753 mmHg 69%
20:00 +15°C° 0 mm 1 mps 753 mmHg 74%
21:00 +15°C° 0 mm 1 mps 753 mmHg 75%
22:00 +14°C° 0 mm 1 mps 753 mmHg 76%
23:00 +14°C° 0 mm 1 mps 753 mmHg 76%
Show more